一网星座-0430星 (ONEWEB-0430 )

导读 | 星芒AI

ONEWE-0430 是 OneWeb 卫星通信星座计划中的一颗低轨通信卫星,旨在为全球提供高速互联网服务。该卫星由阿丽亚娜航天公司制造,采用标准化设计以降低成本和提高部署效率。它运行在约 1200 公里的近地轨道,与其他 OneWeb 卫星协同工作,支持偏远和农村地区的宽带接入。该星座计划由数百颗卫星组成,致力于实现全球覆盖,提升数字连接能力。

基本信息
目录编号:
50501
目录名称:
ONEWEB-0430
国际标识:
2021-132AJ
轨道中心:
EARTH
卫星名称:
一网星座-0430星
卫星全名:
一网星座-0430星 (ONEWEB-0430 )
卫星状态:
在轨 (已飞行1449 天)
发射日期:
2021-12-27 UTC
国别 :
英国 (GB)
星等 :
--
轨道信息
数据来源 国际轨道数据 AOE轨道数据
星历时间 2025-12-15T03:05:29+0800
23小时前
查看轨道信息
2025-12-12T22:00:00+0800
3天前
查看轨道信息
半长轴 7567.879km 7567.883km
偏心率 0.0001615 0.0001852
轨道倾角 87.918° 87.919°
近地点辐角 85.998° 88.575°
升交点赤经 12.079° 12.519°
平近点角 274.133° 215.947°
近地点 1188.521km 1188.346km
远地点 1190.967km 1191.15km
周期 109.200分钟 109.200分钟
每日圈数 13.186865 13.186855
详细信息
平衡模式:
三轴稳定
覆盖范围:
全球
运营商:
一网卫星公司
运营商所在国:
英国
制造商(研发单位):
一网卫星公司
制造商所在国:
英国
使用方式:
暂无
卫星简介
OneWeb卫星网络由648颗重约125公斤的微型卫星组成,运行在1200公里的轨道上。 每颗卫星都能够提供至少每秒8千兆位的吞吐量,以使用其高吞吐量的Ku频段有效载荷为家庭和移动平台提供互联网接入。该卫星仍在工作。
2D轨道图
3D轨道图
轨道高度分析图
轨道倾角分析图
轨道综合分析图
查看轨道综合分析图